Time,TemperatureF,DewpointF,PressureIn,WindDirection,WindDirectionDegrees,WindSpeedMPH,WindSpeedGustMPH,Humidity,HourlyPrecipIn,Conditions,Clouds,dailyrainin,SolarRadiationWatts/m^2,SoftwareType,DateUTC
2013-07-26 00:06:00,52.7,-99.9,30.04,SSW,213,2.0,3.0,0,0.00,,,0.00,0,weatherlink.com 1.10,2013-07-26 07:06:00,
2013-07-26 00:21:00,52.7,-99.9,30.04,SSW,205,0.0,3.0,0,0.00,,,0.00,0,weatherlink.com 1.10,2013-07-26 07:21:00,
2013-07-26 00:36:00,53.1,-99.9,30.04,South,174,2.0,4.0,0,0.00,,,0.00,0,weatherlink.com 1.10,2013-07-26 07:36:00,
2013-07-26 00:51:00,52.8,-99.9,30.03,South,174,0.0,1.0,0,0.00,,,0.00,0,weatherlink.com 1.10,2013-07-26 07:51:00,
2013-07-26 01:06:00,52.6,-99.9,30.03,South,175,0.0,4.0,0,0.00,,,0.00,0,weatherlink.com 1.10,2013-07-26 08:06:00,
2013-07-26 01:21:00,52.6,-99.9,30.03,South,175,0.0,2.0,0,0.00,,,0.00,0,weatherlink.com 1.10,2013-07-26 08:21:00,
2013-07-26 01:36:00,52.9,-99.9,30.03,South,175,0.0,2.0,0,0.00,,,0.00,0,weatherlink.com 1.10,2013-07-26 08:36:00,
2013-07-26 01:51:00,52.7,-99.9,30.03,South,175,0.0,1.0,0,0.00,,,0.00,0,weatherlink.com 1.10,2013-07-26 08:51:00,
2013-07-26 02:21:00,52.7,-99.9,30.03,South,175,0.0,3.0,0,0.00,,,0.00,0,weatherlink.com 1.10,2013-07-26 09:21:00,
2013-07-26 02:37:00,52.7,-99.9,30.02,South,175,1.0,3.0,0,0.00,,,0.00,0,weatherlink.com 1.10,2013-07-26 09:37:00,
2013-07-26 02:52:00,52.3,-99.9,30.03,South,175,0.0,1.0,0,0.00,,,0.00,0,weatherlink.com 1.10,2013-07-26 09:52:00,
2013-07-26 03:07:00,52.2,-99.9,30.02,South,175,0.0,1.0,0,0.00,,,0.00,0,weatherlink.com 1.10,2013-07-26 10:07:00,
2013-07-26 03:22:00,52.0,-99.9,30.02,South,175,0.0,1.0,0,0.00,,,0.00,0,weatherlink.com 1.10,2013-07-26 10:22:00,
2013-07-26 03:37:00,51.9,-99.9,30.03,South,175,0.0,0.0,0,0.00,,,0.00,0,weatherlink.com 1.10,2013-07-26 10:37:00,
2013-07-26 03:52:00,52.0,-99.9,30.03,South,175,0.0,1.0,0,0.00,,,0.00,0,weatherlink.com 1.10,2013-07-26 10:52:00,
2013-07-26 04:07:00,52.0,-99.9,30.03,South,175,0.0,0.0,0,0.00,,,0.00,0,weatherlink.com 1.10,2013-07-26 11:07:00,
2013-07-26 04:22:00,51.9,-99.9,30.03,South,175,0.0,0.0,0,0.00,,,0.00,0,weatherlink.com 1.10,2013-07-26 11:22:00,
2013-07-26 04:37:00,51.8,-99.9,30.03,South,175,0.0,0.0,0,0.00,,,0.00,0,weatherlink.com 1.10,2013-07-26 11:37:00,
2013-07-26 04:52:00,52.2,-46.0,30.04,South,175,1.0,2.0,1,0.00,,,0.00,0,weatherlink.com 1.10,2013-07-26 11:52:00,
2013-07-26 05:07:00,52.3,-46.0,30.04,South,178,2.0,3.0,1,0.01,,,0.01,0,weatherlink.com 1.10,2013-07-26 12:07:00,
2013-07-26 05:22:00,52.4,-46.0,30.05,South,178,0.0,1.0,1,0.01,,,0.01,0,weatherlink.com 1.10,2013-07-26 12:22:00,
2013-07-26 05:37:00,52.6,-46.0,30.05,SSE,155,5.0,6.0,1,0.01,,,0.01,0,weatherlink.com 1.10,2013-07-26 12:37:00,
2013-07-26 05:52:00,52.4,-46.0,30.06,SE,146,0.0,4.0,1,0.01,,,0.01,0,weatherlink.com 1.10,2013-07-26 12:52:00,
2013-07-26 06:07:00,52.3,-46.0,30.06,SE,146,0.0,3.0,1,0.00,,,0.01,0,weatherlink.com 1.10,2013-07-26 13:07:00,
2013-07-26 06:23:00,52.4,-46.0,30.06,SE,146,0.0,3.0,1,0.00,,,0.01,5,weatherlink.com 1.10,2013-07-26 13:23:00,
2013-07-26 06:38:00,52.3,-46.0,30.07,SE,146,0.0,1.0,1,0.00,,,0.01,12,weatherlink.com 1.10,2013-07-26 13:38:00,
2013-07-26 06:53:00,52.7,-46.0,30.07,SE,146,0.0,0.0,1,0.00,,,0.01,30,weatherlink.com 1.10,2013-07-26 13:53:00,
2013-07-26 07:08:00,52.9,-46.0,30.08,SE,146,0.0,3.0,1,0.00,,,0.01,40,weatherlink.com 1.10,2013-07-26 14:08:00,
2013-07-26 07:23:00,53.3,-46.0,30.08,SSE,152,4.0,6.0,1,0.00,,,0.01,40,weatherlink.com 1.10,2013-07-26 14:23:00,
2013-07-26 07:38:00,53.6,-46.0,30.09,SE,145,2.0,5.0,1,0.00,,,0.01,63,weatherlink.com 1.10,2013-07-26 14:38:00,
2013-07-26 07:53:00,54.1,-45.0,30.09,SE,130,3.0,4.0,1,0.00,,,0.01,114,weatherlink.com 1.10,2013-07-26 14:53:00,
2013-07-26 08:08:00,54.5,-45.0,30.09,SE,129,1.0,4.0,1,0.00,,,0.01,91,weatherlink.com 1.10,2013-07-26 15:08:00,
2013-07-26 08:23:00,54.6,-45.0,30.10,SE,140,5.0,6.0,1,0.00,,,0.01,98,weatherlink.com 1.10,2013-07-26 15:23:00,
2013-07-26 08:38:00,54.6,-45.0,30.10,SE,132,5.0,6.0,1,0.00,,,0.01,137,weatherlink.com 1.10,2013-07-26 15:38:00,
2013-07-26 08:53:00,54.9,-45.0,30.10,SSE,165,1.0,7.0,1,0.00,,,0.01,172,weatherlink.com 1.10,2013-07-26 15:53:00,
2013-07-26 09:08:00,55.5,-44.0,30.11,SE,128,1.0,5.0,1,0.00,,,0.01,211,weatherlink.com 1.10,2013-07-26 16:08:00,
2013-07-26 09:23:00,55.6,-44.0,30.11,South,174,3.0,5.0,1,0.00,,,0.01,188,weatherlink.com 1.10,2013-07-26 16:23:00,
2013-07-26 09:54:00,56.4,-99.9,30.11,South,190,4.0,7.0,0,0.00,,,0.01,243,weatherlink.com 1.10,2013-07-26 16:54:00,
2013-07-26 10:09:00,56.2,-99.9,30.11,South,188,5.0,6.0,0,0.00,,,0.01,262,weatherlink.com 1.10,2013-07-26 17:09:00,
2013-07-26 10:24:00,56.5,-99.9,30.11,SSE,151,2.0,6.0,0,0.00,,,0.01,279,weatherlink.com 1.10,2013-07-26 17:24:00,
2013-07-26 10:39:00,56.9,-99.9,30.11,South,175,1.0,7.0,0,0.00,,,0.01,323,weatherlink.com 1.10,2013-07-26 17:39:00,
2013-07-26 10:54:00,57.2,-99.9,30.11,SSW,205,4.0,7.0,0,0.00,,,0.01,301,weatherlink.com 1.10,2013-07-26 17:54:00,
2013-07-26 11:09:00,57.2,-99.9,30.11,South,174,3.0,6.0,0,0.00,,,0.01,309,weatherlink.com 1.10,2013-07-26 18:09:00,
2013-07-26 11:24:00,57.6,-99.9,30.11,SSW,199,5.0,6.0,0,0.00,,,0.01,329,weatherlink.com 1.10,2013-07-26 18:24:00,
2013-07-26 11:39:00,58.1,-99.9,30.11,South,185,4.0,7.0,0,0.00,,,0.01,362,weatherlink.com 1.10,2013-07-26 18:39:00,
2013-07-26 11:54:00,59.0,-99.9,30.11,SSE,161,7.0,7.0,0,0.00,,,0.01,411,weatherlink.com 1.10,2013-07-26 18:54:00,
2013-07-26 12:09:00,59.6,-99.9,30.10,South,178,2.0,7.0,0,0.00,,,0.01,454,weatherlink.com 1.10,2013-07-26 19:09:00,
2013-07-26 12:24:00,60.2,-99.9,30.10,SE,124,5.0,7.0,0,0.00,,,0.01,446,weatherlink.com 1.10,2013-07-26 19:24:00,
2013-07-26 12:39:00,60.6,-99.9,30.10,SSE,163,2.0,9.0,0,0.00,,,0.01,473,weatherlink.com 1.10,2013-07-26 19:39:00,
2013-07-26 12:54:00,60.6,-41.0,30.10,South,188,4.0,10.0,1,0.00,,,0.01,496,weatherlink.com 1.10,2013-07-26 19:54:00,
2013-07-26 13:09:00,60.9,-29.0,30.10,SSE,165,2.0,8.0,2,0.00,,,0.01,499,weatherlink.com 1.10,2013-07-26 20:09:00,
2013-07-26 13:25:00,61.2,-7.0,30.10,SSW,193,6.0,9.0,6,0.00,,,0.01,480,weatherlink.com 1.10,2013-07-26 20:25:00,
2013-07-26 13:40:00,60.9,4.0,30.10,SSW,198,5.0,10.0,10,0.00,,,0.01,506,weatherlink.com 1.10,2013-07-26 20:40:00,
2013-07-26 13:55:00,60.7,-1.0,30.10,South,186,5.0,8.0,8,0.00,,,0.01,541,weatherlink.com 1.10,2013-07-26 20:55:00,
2013-07-26 14:10:00,61.0,10.0,30.10,SSW,193,6.0,9.0,13,0.00,,,0.01,552,weatherlink.com 1.10,2013-07-26 21:10:00,
2013-07-26 14:25:00,61.0,10.0,30.10,South,190,4.0,8.0,13,0.00,,,0.01,520,weatherlink.com 1.10,2013-07-26 21:25:00,
2013-07-26 14:40:00,60.9,11.0,30.09,SSW,213,4.0,6.0,14,0.00,,,0.01,499,weatherlink.com 1.10,2013-07-26 21:40:00,
2013-07-26 14:55:00,60.7,17.0,30.09,SSW,209,4.0,6.0,18,0.00,,,0.01,471,weatherlink.com 1.10,2013-07-26 21:55:00,
2013-07-26 15:10:00,60.1,3.0,30.08,SSW,194,3.0,6.0,10,0.00,,,0.01,454,weatherlink.com 1.10,2013-07-26 22:10:00,
2013-07-26 15:25:00,59.6,7.0,30.08,SW,224,4.0,6.0,12,0.00,,,0.01,443,weatherlink.com 1.10,2013-07-26 22:25:00,
2013-07-26 15:40:00,59.7,3.0,30.08,SSW,213,4.0,7.0,10,0.00,,,0.01,461,weatherlink.com 1.10,2013-07-26 22:40:00,
2013-07-26 15:55:00,59.8,-5.0,30.08,SSW,213,5.0,7.0,7,0.00,,,0.01,464,weatherlink.com 1.10,2013-07-26 22:55:00,
2013-07-26 16:10:00,60.2,7.0,30.07,SSW,198,3.0,7.0,12,0.00,,,0.01,490,weatherlink.com 1.10,2013-07-26 23:10:00,
2013-07-26 16:25:00,60.5,15.0,30.07,South,189,5.0,6.0,17,0.00,,,0.01,490,weatherlink.com 1.10,2013-07-26 23:25:00,
2013-07-26 16:40:00,60.7,15.0,30.06,SSW,200,5.0,5.0,17,0.00,,,0.01,628,weatherlink.com 1.10,2013-07-26 23:40:00,
2013-07-26 16:56:00,61.6,27.0,30.06,South,187,4.0,7.0,27,0.00,,,0.01,566,weatherlink.com 1.10,2013-07-26 23:56:00,
2013-07-26 17:11:00,60.8,23.0,30.06,SSW,198,5.0,6.0,23,0.00,,,0.01,643,weatherlink.com 1.10,2013-07-27 00:11:00,
2013-07-26 17:26:00,60.7,14.0,30.06,SSW,207,4.0,7.0,16,0.00,,,0.01,299,weatherlink.com 1.10,2013-07-27 00:26:00,
2013-07-26 17:41:00,60.4,11.0,30.05,SW,225,4.0,7.0,14,0.00,,,0.01,258,weatherlink.com 1.10,2013-07-27 00:41:00,
2013-07-26 18:11:00,58.7,-23.0,30.04,SSW,200,2.0,6.0,3,0.00,,,0.01,174,weatherlink.com 1.10,2013-07-27 01:11:00,
2013-07-26 18:26:00,57.7,-43.0,30.04,WSW,237,2.0,4.0,1,0.00,,,0.01,148,weatherlink.com 1.10,2013-07-27 01:26:00,
2013-07-26 19:11:00,56.2,-99.9,30.04,SSW,210,0.0,3.0,0,0.00,,,0.01,63,weatherlink.com 1.10,2013-07-27 02:11:00,
2013-07-26 19:41:00,54.9,-99.9,30.04,SSW,198,1.0,4.0,0,0.00,,,0.01,28,weatherlink.com 1.10,2013-07-27 02:41:00,
2013-07-26 19:57:00,54.7,-99.9,30.04,WSW,237,2.0,5.0,0,0.00,,,0.01,19,weatherlink.com 1.10,2013-07-27 02:57:00,
2013-07-26 20:12:00,54.1,-99.9,30.04,SSW,213,0.0,2.0,0,0.00,,,0.01,9,weatherlink.com 1.10,2013-07-27 03:12:00,
2013-07-26 20:27:00,53.9,-99.9,30.04,NW,318,0.0,3.0,0,0.00,,,0.01,0,weatherlink.com 1.10,2013-07-27 03:27:00,
2013-07-26 20:42:00,53.9,-99.9,30.04,NW,316,0.0,3.0,0,0.00,,,0.01,0,weatherlink.com 1.10,2013-07-27 03:42:00,
2013-07-26 20:57:00,54.1,-99.9,30.04,NW,316,0.0,0.0,0,0.00,,,0.01,0,weatherlink.com 1.10,2013-07-27 03:57:00,
2013-07-26 21:12:00,54.3,-99.9,30.04,NW,316,0.0,0.0,0,0.00,,,0.01,0,weatherlink.com 1.10,2013-07-27 04:12:00,
2013-07-26 21:27:00,54.6,-99.9,30.05,NW,316,2.0,3.0,0,0.00,,,0.01,0,weatherlink.com 1.10,2013-07-27 04:27:00,
2013-07-26 21:42:00,54.4,-99.9,30.05,WNW,293,0.0,3.0,0,0.00,,,0.01,0,weatherlink.com 1.10,2013-07-27 04:42:00,
2013-07-26 21:57:00,54.2,-99.9,30.05,WNW,302,0.0,2.0,0,0.00,,,0.01,0,weatherlink.com 1.10,2013-07-27 04:57:00,
2013-07-26 22:12:00,54.1,-99.9,30.05,WNW,302,1.0,2.0,0,0.00,,,0.01,0,weatherlink.com 1.10,2013-07-27 05:12:00,
2013-07-26 22:27:00,54.0,-99.9,30.05,NW,318,2.0,4.0,0,0.00,,,0.01,0,weatherlink.com 1.10,2013-07-27 05:27:00,
2013-07-26 22:42:00,54.1,-99.9,30.05,NW,317,0.0,2.0,0,0.00,,,0.01,0,weatherlink.com 1.10,2013-07-27 05:42:00,
2013-07-26 22:57:00,54.1,-99.9,30.05,NW,314,0.0,2.0,0,0.00,,,0.01,0,weatherlink.com 1.10,2013-07-27 05:57:00,
2013-07-26 23:12:00,54.2,-99.9,30.04,NW,314,0.0,2.0,0,0.00,,,0.01,0,weatherlink.com 1.10,2013-07-27 06:12:00,
2013-07-26 23:27:00,54.0,-99.9,30.04,SW,218,2.0,4.0,0,0.00,,,0.01,0,weatherlink.com 1.10,2013-07-27 06:27:00,
2013-07-26 23:43:00,53.8,-99.9,30.04,SW,218,0.0,2.0,0,0.00,,,0.01,0,weatherlink.com 1.10,2013-07-27 06:43:00,
2013-07-26 23:58:00,53.9,-99.9,30.04,SW,218,0.0,2.0,0,0.00,,,0.01,0,weatherlink.com 1.10,2013-07-27 06:58:00,